STARLINK-36494, 67331

Orbit data source: Space-Track

STARLINK-36494, 67331 is a payload satellite owned by SpaceX/Seattle (US) in LEO that was launched on Sun, 04 Jan 2026 UTC via an FALCON 9 launch vehicle from the Air Force Eastern Test Range (AFETR). Payload-class satellites include a variety of spacecraft equipped with specific instruments for various scientific and technological missions. These include communications satellites like Starlink; space stations such as the ISS; scientific satellites like the Hubble; Earth observation satellites from companies like Planet Labs, Umbra, and HawkEye 360; GPS; miniature CubeSats for education and research; and military/defense satellites.

Loading next visibility...
Identifier
67331, 2026-002AC
Orbit
LEO
Country
Flag of USUS
Related business
Manufacturer
SpaceX/Seattle
Mission
Operational Commercial Communications
Bus & Motor
STARLINK V2MO, Unknown motor
Mass
575 kg wet, ~530 kg dry
Launch date (UTC)
2026-01-04 (6 months ago)
Launch vehicle
FALCON 9
Launch site
Air Force Eastern Test Range (AFETR)
Object type
Payload
Rocket body
Debris
Shape & HBR
Box + 2 Pan, 17.7 m
Radar Cross Section
36.964 m², Large (>1 m²)

Expand to show TLE details & history
Last TLE update: 17 hours ago

TLE from 17 hours ago
0 STARLINK-36494
1 67331U 26002AC  26171.24884755 -.00020715  00000-0 -74581-3 0  9995
2 67331  42.9997 106.0995 0001814  12.6151 347.4746 15.27558268 26925
Epoch: 2026-06-20T05:58Z
TLE epoch observation values (Epoch: 2026-06-20T05:58:20.428Z)
Latitude
0.00001°
Longitude
108.0482°
Altitude
481.675 km
Speed
7.627 km/s
True Right ascension
07h 04m 23s
True Declination
0° 00' 00"
Sunlit
Object was in daylight at epoch
Visualization orbit readout
Latitude
Unknown
Longitude
Unknown
Altitude
Unknown
Speed
Unknown
Apparent Right ascension
Unknown
Apparent Declination
Unknown
Sunlit
N/A
Visualization observer readout
Local Sidereal Time
10:17:12
Azimuth
Unknown
Elevation
Unknown
Doppler factor
Unknown
Orbital elements
Apogee altitude
486.304 km
Perigee altitude
483.814 km
Semi-major axis
6,863.196 km
Eccentricity
0.00018
Inclination
42.9997°
RAAN
106.0995°
Arg. of periapsis
12.6151°
True anomaly
347.47009°
Mean anomaly
347.4746°
Eccentric anomaly
347.47235°
Mean motion
3.81728 °/min
Orbital period
94.31 mins
BSTAR
-0.00074581
Loading maneuver chart data...
Computing Atmospheric mass density...
Loading historical data...
Loading historical data...
Loading historical data...
Loading historical data...
Loading historical data...
Loading historical data...
Loading historical data...

Documentation

Showing up to 5 results
|